Wind_Speed
6 4 8 11 14 16 15 10 6 9 9 7 18 11 19 19 17 16 14 9 13 13 17 27 30 31 34 33 27 24 31 25 23 20 16 10 14 16 26 21 23 22 16 13
8 11 11 16 16 18 16 8 8 7 13 10 15 18 20 20 20 20 17 13 14 15 16 21 26 30 33 34 28 23 30 29 24 23 18 14 13 20 31 22 21 18 14 13
9 9 14 18 17 18 17 8 5 4 6 11 3 8 19 18 17 20 19 15 16 18 19 17 21 28 31 33 30 25 27 30 24 25 19 12 16 18 25 24 23 18 13 15
9 13 19 19 15 15 15 18 14 13 9 8 12 7 19 22 21 24 21 16 18 17 19 18 21 27 32 33 33 29 31 31 27 23 21 21 20 22 26 27 24 23 16 13
9 12 15 20 20 14 14 19 16 10 11 6 11 2 7 23 22 24 22 18 17 17 22 21 23 31 32 34 34 34 31 30 32 25 18 24 20 25 28 27 23 25 22 17
10 13 14 14 19 21 17 18 17 14 5 6 15 8 8 19 23 22 21 21 21 16 22 23 33 34 32 35 34 37 34 32 34 26 18 26 25 26 22 29 27 26 23 20
10 17 17 17 18 22 18 13 8 8 5 5 14 10 16 18 22 25 28 27 25 19 20 23 22 28 33 36 35 36 36 35 33 29 22 21 25 21 19 33 33 28 27 26
7 11 10 17 15 14 17 10 8 10 7 6 12 7 15 15 22 30 28 27 25 24 17 26 23 32 33 38 36 37 37 36 34 31 25 25 24 15 9 27 32 29 32 28
5 11 23 17 18 18 23 15 14 10 13 10 7 8 17 12 13 20 25 24 26 26 22 27 26 36 35 38 37 39 38 37 36 35 30 25 23 18 15 20 29 29 20 28
5 8 14 19 10 19 16 16 11 8 11 14 6 4 5 7 15 14 23 29 28 26 23 21 25 35 38 35 40 39 40 39 39 36 32 31 27 22 20 13 15 16 9 12
8 4 15 17 6 12 15 14 14 9 7 10 6 7 10 10 2 6 21 27 26 26 25 22 22 36 39 39 36 39 41 37 36 38 33 31 31 28 27 22 17 15 13 12
5 5 5 21 20 18 17 13 13 11 9 4 5 16 3 6 9 7 6 28 25 27 26 23 23 36 37 39 37 39 41 39 38 38 36 35 33 32 31 28 24 21 18 13
6 4 6 16 8 7 5 15 18 10 6 16 5 6 3 12 10 5 12 9 9 14 27 23 23 23 34 38 38 37 40 40 40 39 37 35 35 34 34 34 29 25 22 18
6 3 7 10 19 17 21 24 22 21 6 11 14 15 5 12 19 10 22 20 17 14 2 18 23 25 35 38 38 37 37 41 40 39 38 35 36 37 35 33 35 33 26 26
1 7 10 16 19 16 18 22 20 17 16 10 11 6 5 13 9 12 13 24 17 15 17 17 10 9 17 28 31 32 37 36 41 38 37 36 38 36 35 34 33 32 34 27
11 8 11 17 18 18 20 25 18 16 17 9 4 4 17 19 16 19 16 18 20 18 16 15 17 14 17 19 11 24 34 34 41 39 37 36 35 37 37 36 34 31 33 35
7 7 6 11 13 18 11 11 19 20 19 14 7 8 19 12 19 10 7 13 13 12 12 11 15 14 19 2 11 10 21 32 36 37 34 35 36 36 37 36 33 34 33 30
12 6 4 12 12 12 8 14 12 14 16 27 5 16 15 17 12 14 14 11 9 1 2 8 9 14 10 9 19 23 15 14 24 28 29 30 33 34 35 35 35 34 34 34
15 9 7 9 9 13 19 8 7 8 13 21 12 11 17 19 17 11 9 9 6 6 4 10 13 15 18 20 18 16 22 10 12 8 24 26 28 30 31 32 32 33 29 24
14 9 8 9 6 11 3 12 9 7 1 19 19 1 5 5 5 3 2 7 7 9 12 12 15 18 23 21 19 18 12 12 21 21 10 10 13 19 23 27 31 31 29 26
4 6 8 12 9 5 3 10 8 5 6 15 17 14 7 6 6 11 6 6 7 8 11 15 19 18 18 19 20 22 17 10 12 9 11 11 8 2 7 16 25 25 22 19
3 1 4 5 8 11 14 7 1 5 2 9 10 13 13 12 11 10 6 3 5 9 13 14 15 17 18 18 20 20 17 11 6 5 9 3 4 9 9 8 3 8 13 12
3 3 2 1 4 6 7 3 1 5 7 7 12 6 9 7 6 6 4 4 5 10 13 13 15 16 18 16 16 19 16 11 7 2 6 10 7 4 6 8 5 6 9 13
4 1 3 3 5 10 9 10 5 3 9 11 11 9 9 2 6 4 7 8 9 14 15 15 17 18 17 17 18 18 20 19 8 7 8 6 9 6 5 3 1 3 5 9
4 4 2 2 1 11 9 8 10 4 9 15 13 6 5 5 6 4 3 6 9 14 14 16 16 16 14 14 17 17 17 20 23 25 8 13 3 3 7 10 9 6 6 4
3 2 3 4 7 5 13 4 8 6 8 14 16 5 5 7 5 1 3 12 16 15 21 21 18 13 12 13 14 16 16 16 18 18 20 20 19 5 7 8 10 6 2 5
Wind_Direction
254 246 242 248 259 260 272 276 151 198 239 158 221 170 191 182 168 176 196 189 166 158 157 158 165 160 156 160 163 174 167 172 179 187 192 212 171 174 180 168 164 175 183 186
289 255 244 265 267 274 280 258 274 322 199 188 222 192 186 190 185 176 197 188 172 165 159 161 166 155 155 163 169 182 175 175 183 188 197 182 165 151 173 172 169 173 187 188
251 267 257 252 264 274 277 241 211 155 282 218 161 177 180 194 194 176 194 194 181 172 163 167 167 160 160 165 173 182 185 176 187 190 191 191 170 156 162 170 169 186 195 190
243 266 273 272 251 254 270 273 268 127 115 242 232 242 188 186 200 177 190 192 186 178 166 167 163 164 164 169 175 181 181 182 191 197 196 181 169 170 172 178 177 182 190 197
254 272 271 271 275 261 253 272 281 217 161 271 285 212 246 178 194 180 186 188 189 185 169 169 168 169 169 170 174 182 183 189 197 203 211 196 184 190 190 182 180 181 186 192
287 290 275 273 277 273 275 263 274 287 148 239 267 249 261 179 186 182 182 188 194 191 172 173 172 169 167 172 175 181 185 193 200 209 215 199 199 194 194 184 188 183 190 190
256 260 277 276 280 285 276 269 262 274 276 212 226 246 256 192 178 173 186 189 190 197 174 173 169 170 169 176 176 179 186 192 199 205 216 200 204 200 199 197 184 184 194 194
281 280 257 255 252 259 272 254 232 244 236 259 244 247 258 186 187 175 183 187 187 192 187 175 175 175 174 175 177 178 183 190 199 204 208 211 213 217 206 182 183 193 200 202
320 334 319 256 272 246 267 265 260 239 261 274 260 269 266 180 173 177 186 184 186 190 191 175 177 178 179 176 177 179 182 189 199 204 207 213 219 216 213 206 196 200 209 218
287 309 303 307 292 277 238 253 270 248 235 251 270 260 252 257 189 184 177 178 186 188 186 178 178 178 181 176 178 178 183 186 195 203 208 212 213 212 215 216 220 206 207 221
320 14 308 319 306 262 282 243 250 251 226 237 263 264 208 269 249 185 179 179 182 184 189 189 175 177 181 183 175 175 181 186 190 197 204 211 217 215 216 221 220 228 216 200
5 275 297 290 288 288 280 278 234 237 259 261 241 252 278 141 17 252 259 179 184 186 188 188 175 175 180 183 180 177 181 184 187 193 198 207 215 219 221 221 218 223 227 216
345 350 335 322 322 295 289 335 328 248 183 240 239 275 271 104 42 59 6 91 151 206 192 183 174 175 180 184 184 179 179 185 187 189 193 200 207 217 222 226 224 222 224 229
339 256 242 269 280 298 307 317 315 312 204 231 243 254 226 148 142 276 58 30 37 15 350 179 176 178 180 181 184 184 181 184 185 187 192 196 200 210 216 223 227 225 222 228
286 286 307 297 290 318 309 302 301 309 298 220 244 266 236 189 128 97 75 51 358 333 39 39 51 133 168 178 182 187 188 183 183 185 190 196 200 204 213 216 222 226 221 223
322 305 321 313 309 318 300 305 290 292 291 261 252 355 88 96 63 67 69 67 26 346 2 43 51 80 64 17 196 189 187 181 182 185 190 194 199 202 209 214 217 221 226 228
273 293 325 280 314 315 301 349 360 341 305 289 207 136 110 69 94 102 75 87 69 6 334 33 51 47 71 18 45 99 178 180 179 184 188 192 197 201 207 214 219 223 225 226
251 245 248 272 314 290 261 36 17 331 20 352 43 97 107 101 82 73 91 98 105 121 8 29 50 73 55 40 50 55 98 143 173 181 186 192 197 203 209 213 218 225 229 225
212 226 244 247 264 279 293 19 14 5 322 358 10 80 105 105 81 50 69 104 130 107 68 59 44 40 48 45 34 70 60 51 52 144 197 195 202 208 213 214 220 223 217 216
352 230 204 254 275 270 47 4 318 286 265 351 347 207 157 202 87 132 62 74 62 42 62 60 50 46 47 40 42 53 80 69 56 36 21 215 223 230 227 231 225 219 216 210
16 324 244 225 244 264 6 328 289 22 316 330 358 9 49 67 78 112 102 82 91 79 65 70 61 50 49 52 56 51 40 58 81 71 32 36 35 322 284 263 233 216 200 192
164 302 307 278 219 257 14 310 80 115 353 6 26 13 43 73 69 85 88 91 88 89 79 74 70 62 61 61 68 59 40 19 46 127 113 32 358 356 328 299 91 165 181 168
349 230 256 93 342 345 357 353 174 240 94 54 51 30 41 19 87 98 102 106 109 89 84 86 85 78 62 59 58 55 38 27 18 43 116 125 104 232 270 275 243 213 207 206
212 211 238 79 357 341 326 308 300 323 106 89 71 64 13 6 115 59 83 70 78 83 84 83 78 79 75 60 52 44 33 44 38 10 35 50 55 83 293 224 248 222 216 207
263 140 206 338 300 333 274 270 306 316 104 82 74 60 104 355 6 61 80 98 93 79 84 85 77 67 61 52 42 32 26 33 43 43 69 26 34 103 155 87 61 351 311 281
119 280 231 195 186 158 272 242 287 272 166 118 118 136 55 118 111 301 32 78 78 70 63 53 49 49 54 44 31 23 23 30 28 26 20 13 19 204 139 129 136 196 160 102
Height
752 775 788 772 762 754 753 755 774 764 756 763 767 769 767 759 767 774 774 774 775 779 782 787 793 798 803 809 814 819 822 827 830 832 834 836 840 843 846 846 849 851 854 855
772 780 760 751 749 752 754 760 761 747 741 759 762 766 763 756 758 765 770 768 770 774 779 784 790 796 801 807 812 817 820 824 828 830 831 836 837 838 842 846 848 850 852 854
782 767 748 751 755 758 755 764 757 757 749 741 753 772 767 752 748 757 760 759 761 767 775 780 787 793 799 804 809 815 819 823 826 829 830 833 837 840 842 845 847 850 851 853
772 755 755 755 757 752 772 736 736 755 772 801 739 796 765 753 752 753 755 755 757 759 766 773 781 789 795 800 806 812 817 821 824 827 830 832 833 837 840 842 844 847 850 853
777 767 764 762 754 742 755 731 737 744 763 774 758 777 753 741 753 753 749 749 751 753 760 767 773 782 790 796 802 809 814 819 822 824 827 829 832 834 836 840 843 845 847 850
765 747 753 752 738 734 730 735 737 739 762 794 764 765 753 746 738 744 741 741 744 747 753 759 766 775 784 792 798 804 809 815 819 823 825 827 829 831 834 837 840 842 844 847
768 761 746 741 754 735 738 756 785 790 792 795 750 762 740 715 710 721 729 728 733 737 744 753 761 769 776 784 791 798 805 810 814 818 821 823 826 830 830 832 837 839 841 842
787 790 756 738 748 757 748 754 778 812 800 783 743 764 729 696 687 696 706 713 720 730 734 743 750 760 767 776 785 791 798 805 810 814 817 819 822 825 829 831 832 834 836 839
800 788 748 732 732 737 745 757 735 762 755 766 744 724 701 693 694 696 703 711 718 722 726 735 743 751 759 768 776 784 791 798 804 809 814 817 819 822 826 829 831 831 835 836
781 799 759 736 727 724 734 722 758 748 788 791 764 747 744 717 701 693 695 705 709 714 720 726 733 743 752 760 768 777 784 791 797 804 809 813 816 820 824 826 828 829 831 831
777 786 781 752 752 751 740 738 734 735 746 772 783 761 708 705 692 691 689 693 699 706 710 717 726 736 744 753 761 768 776 785 791 797 804 809 813 816 820 822 823 825 828 831
774 786 793 769 733 723 726 733 727 745 766 752 755 739 681 695 699 683 691 684 690 693 698 707 715 726 737 745 753 759 767 775 782 790 797 802 807 811 814 817 820 822 825 828
776 795 807 784 748 725 731 732 729 716 729 747 770 748 685 686 695 702 713 688 690 693 693 696 708 718 728 737 744 752 759 766 774 781 789 796 800 805 808 812 816 819 821 824
777 786 799 805 779 763 758 740 728 726 739 738 734 727 706 701 697 703 709 719 719 721 700 693 696 707 718 729 738 746 753 759 767 774 782 787 792 797 802 806 810 814 817 819
781 797 784 772 757 756 753 743 730 734 726 726 720 720 701 699 696 715 720 717 744 734 714 709 708 712 722 730 738 744 749 754 760 767 774 779 784 790 796 801 804 808 812 814
783 796 784 779 758 754 750 739 723 719 712 704 704 716 699 701 721 724 730 729 735 747 737 727 724 724 728 739 739 740 744 747 753 760 766 772 778 783 788 794 798 803 806 809
795 795 798 793 772 765 765 743 734 724 709 707 715 706 704 718 719 730 734 733 735 755 756 741 736 739 730 751 747 742 743 746 749 754 760 766 771 777 782 788 793 797 800 803
788 796 797 793 783 794 749 740 741 744 737 732 703 707 710 727 740 737 732 744 757 765 756 749 745 744 752 756 747 744 744 747 750 755 759 763 768 772 776 781 785 790 794 797
771 781 792 796 792 769 747 749 756 760 753 749 730 723 722 726 730 743 746 754 759 761 751 749 747 744 746 743 750 744 746 748 754 758 759 761 765 770 773 776 779 782 786 791
777 771 781 784 790 786 758 749 744 740 760 759 747 729 736 731 746 753 748 745 752 749 748 748 748 750 747 751 748 743 746 746 741 758 761 761 765 769 770 773 774 776 781 784
788 788 785 775 779 764 764 753 743 767 782 764 757 748 737 744 746 753 756 755 755 755 754 754 754 755 754 755 753 752 754 754 751 758 761 763 764 768 770 770 771 773 776 775
799 797 795 775 774 778 773 758 758 772 772 766 761 759 748 752 755 757 760 761 761 761 762 761 760 761 760 761 760 762 763 764 764 763 757 766 768 771 774 775 773 769 769 748
801 799 796 797 790 777 778 780 778 778 768 768 766 770 766 764 763 762 764 764 765 764 765 766 766 766 767 767 767 768 770 768 768 768 763 758 758 768 772 774 776 778 782 781
794 793 796 796 787 785 781 776 772 767 764 760 764 770 773 775 773 770 768 768 768 769 770 771 770 769 772 773 771 771 771 769 769 768 763 763 758 763 774 774 771 778 783 785
786 797 791 793 794 789 780 784 774 762 755 750 762 776 781 779 778 778 776 773 772 769 770 771 773 775 777 776 774 771 773 771 768 768 770 769 763 769 777 770 769 781 785 782
785 788 791 790 793 788 791 785 781 772 773 761 769 783 779 783 786 785 780 776 773 774 772 773 775 776 776 774 774 776 775 774 774 772 772 772 772 773 773 774 774 788 785 781